Location: Newark
(22.3060°N, 114.2134°E)
Time: 04:02:16
(UTC+00:00)

Transit 2A - All Passes

Search period start: 06 August 2021 00:00
Search period end: 16 August 2021 00:00
Orbit: 598 x 961 km, 66.7° (Epoch: 05 August)

Date Brightness Start Highest point End Pass type
(mag) Time Alt. Az. Time Alt. Az. Time Alt. Az.
06 Aug - 06:14:50 10° N 06:19:55 29° ENE 06:25:15 10° ESE daylight
06 Aug - 07:57:49 10° NW 08:02:59 31° WSW 08:08:23 10° SSW daylight
06 Aug - 20:45:36 10° SW 20:49:42 44° WNW 20:53:56 10° N visible
07 Aug - 05:41:28 10° NNE 05:45:37 19° ENE 05:49:57 10° ESE daylight
07 Aug - 07:23:10 10° NW 07:28:52 47° WSW 07:34:53 10° S daylight
07 Aug - 20:11:14 10° SSW 20:15:31 81° WNW 20:19:56 10° NNE visible
08 Aug - 05:08:50 10° NE 05:11:16 12° ENE 05:13:44 10° E daylight
08 Aug - 06:48:47 10° NNW 06:54:44 73° WSW 07:01:01 10° SSE daylight
08 Aug - 19:37:12 10° S 19:41:23 55° ESE 19:45:42 10° NNE visible
09 Aug - 06:14:37 10° NNW 06:20:34 75° ENE 06:26:52 10° SSE daylight
09 Aug - 08:01:52 10° W 08:03:18 11° WSW 08:04:47 10° WSW daylight
09 Aug - 19:03:32 10° S 19:07:18 30° ESE 19:11:09 10° NE visible
09 Aug - 20:48:08 10° W 20:50:25 14° WNW 20:52:44 10° NNW visible
10 Aug - 05:40:38 10° N 05:46:22 49° ENE 05:52:25 10° SE daylight
10 Aug - 07:25:17 10° WNW 07:29:15 18° WSW 07:33:21 10° SSW daylight
10 Aug - 18:30:24 10° SSE 18:33:15 17° ESE 18:36:08 10° ENE visible
10 Aug - 20:12:37 10° WSW 20:16:05 23° WNW 20:19:40 10° N visible
11 Aug - 05:06:52 10° N 05:12:07 32° ENE 05:17:38 10° SE daylight
11 Aug - 06:50:06 10° NW 06:55:10 28° WSW 07:00:27 10° SSW daylight
11 Aug - 19:37:47 10° SW 19:41:49 39° WNW 19:46:01 10° N visible
12 Aug - 04:33:24 10° NNE 04:37:51 21° ENE 04:42:27 10° ESE daylight
12 Aug - 06:15:24 10° NW 06:21:04 43° WSW 06:26:59 10° S daylight
12 Aug - 19:03:21 10° SSW 19:07:37 72° WNW 19:12:05 10° NNE visible
13 Aug - 04:00:31 10° NNE 04:03:30 14° ENE 04:06:32 10° E daylight
13 Aug - 05:40:58 10° NNW 05:46:56 67° WSW 05:53:12 10° SSE daylight
13 Aug - 18:29:15 10° SSW 18:33:29 62° ESE 18:37:52 10° NNE visible
14 Aug - 05:06:46 10° NNW 05:12:46 81° ENE 05:19:06 10° SSE daylight
14 Aug - 17:55:30 10° S 17:59:23 34° ESE 18:03:23 10° NE visible
14 Aug - 19:40:38 10° W 19:42:34 13° WNW 19:44:33 10° NNW visible
15 Aug - 04:32:43 10° N 04:38:35 53° ENE 04:44:42 10° SE daylight
15 Aug - 06:17:43 10° WNW 06:21:26 17° WSW 06:25:14 10° SW daylight
15 Aug - 17:22:15 10° SSE 17:25:20 19° ESE 17:28:29 10° ENE night (unlit)
15 Aug - 19:04:55 10° WSW 19:08:13 21° WNW 19:11:40 10° N visible
